Wind_Speed
7 9 8 9 12 13 13 14 15 16 18 19 19 18 18 10 14 9 10 12 15 15 14 14 10 9 10 9 11 9 10 16 21 18 16 12 11 11 5 11 5 8 5 2 18
7 8 8 9 11 12 13 13 14 14 15 17 18 18 17 7 8 15 15 13 13 13 14 12 9 9 11 9 11 14 13 23 18 17 18 19 15 15 6 13 17 12 9 5 19
6 7 7 8 9 10 12 13 14 15 16 17 16 15 14 7 3 9 15 15 15 13 10 9 10 9 13 17 18 15 20 18 19 21 18 21 17 16 12 14 15 19 16 15 19
4 6 7 8 9 10 12 13 14 16 17 17 16 14 11 10 2 12 15 16 15 13 10 9 7 7 8 12 19 22 22 20 24 25 18 20 21 21 18 18 7 10 11 20 23
6 7 8 8 9 9 11 12 14 15 16 17 16 16 8 7 6 11 13 15 14 13 10 9 8 7 9 10 16 20 17 24 23 26 26 25 26 21 23 17 15 11 9 22 24
8 8 8 8 8 9 11 12 13 15 15 15 14 12 10 10 13 15 17 13 12 12 10 8 5 7 10 11 14 15 18 19 18 23 28 25 28 29 32 26 25 18 15 20 25
10 10 9 8 9 9 10 12 14 15 14 13 10 6 8 8 15 15 15 13 10 10 9 7 6 6 8 9 11 18 19 20 23 20 22 22 26 29 30 28 28 19 19 21 25
11 10 8 7 7 8 10 12 13 11 10 9 10 7 3 15 14 15 16 12 9 8 8 7 6 10 12 12 17 17 18 18 15 25 25 18 34 22 29 33 31 31 23 21 25
7 6 5 5 6 8 11 12 9 4 10 7 8 5 4 12 17 13 13 13 13 6 9 7 5 7 8 10 11 11 13 17 17 20 17 26 33 21 24 25 35 35 31 25 24
6 4 3 4 6 8 10 10 7 5 10 3 9 1 5 14 15 9 15 13 8 11 5 6 4 6 8 7 8 11 13 16 17 16 19 20 27 24 32 28 32 33 31 33 26
5 4 2 3 5 7 9 5 5 1 10 5 4 4 9 16 6 9 13 12 7 7 6 6 6 9 13 12 15 16 18 22 19 19 20 21 23 19 24 23 21 31 34 35 28
4 3 2 3 5 6 7 4 5 2 2 4 5 5 9 15 8 10 12 10 11 10 9 9 12 6 10 13 14 15 18 20 19 18 21 24 28 25 24 29 25 24 32 33 30
5 4 2 2 4 6 6 6 6 5 3 1 3 4 8 12 6 9 10 12 10 9 10 10 15 18 10 14 15 15 16 18 21 18 22 22 32 29 27 35 34 33 31 32 29
5 5 2 1 2 5 5 7 7 4 1 5 3 2 8 8 3 8 6 6 5 7 11 8 6 11 14 17 14 16 15 15 17 15 12 11 12 16 16 26 29 33 34 36 33
6 5 2 1 1 3 4 6 6 4 2 6 3 6 15 4 11 1 9 5 8 11 4 7 13 14 17 16 13 13 12 14 16 16 17 19 13 7 18 26 24 26 35 38 39
7 5 4 1 2 3 4 6 3 0 0 4 5 8 11 2 6 9 6 5 11 8 7 16 22 13 9 12 13 13 14 16 16 13 14 16 16 17 17 21 17 17 35 31 40
8 7 5 2 1 3 5 4 1 2 1 5 4 8 10 7 6 7 11 9 7 8 11 17 8 3 6 10 9 9 10 5 4 6 10 12 14 24 13 20 23 24 29 34 37
10 8 5 2 1 2 5 2 1 1 2 3 4 9 4 9 5 12 8 6 6 5 11 9 9 1 2 10 10 17 5 4 8 8 12 18 8 13 11 9 14 16 26 23 34
11 9 6 3 1 2 2 1 1 2 2 4 5 3 1 4 6 8 6 3 5 7 6 6 7 22 22 12 2 0 5 1 7 18 12 8 15 22 19 7 9 15 20 25 25
13 9 7 4 1 2 3 2 1 2 2 0 2 1 3 5 7 9 5 1 4 1 12 6 13 12 9 11 12 7 5 5 3 5 8 8 14 12 10 15 18 17 19 22 29
13 5 6 5 3 2 1 2 3 5 3 1 1 2 4 4 5 4 5 6 2 8 16 14 6 13 17 3 10 4 2 4 5 5 5 7 6 6 15 17 20 20 27 24 27
11 2 7 8 1 2 1 3 2 4 5 5 3 5 2 3 5 4 4 3 4 12 11 9 5 10 21 22 9 4 6 8 5 6 7 9 10 9 13 17 14 20 16 16 13
9 4 7 10 3 2 1 3 3 5 5 4 4 6 2 3 4 7 6 3 8 11 4 7 3 8 7 2 4 10 17 12 11 6 13 6 4 9 15 15 17 14 7 1 10
7 3 3 5 3 4 4 3 2 7 6 6 4 5 3 5 7 6 5 5 10 10 5 6 4 8 11 18 16 15 20 18 9 4 8 7 13 15 15 15 12 12 4 6 13
9 4 6 4 5 6 6 5 4 5 8 8 4 9 6 4 5 6 5 8 11 2 5 6 9 13 16 19 20 20 16 12 10 10 5 12 13 11 10 13 9 9 5 6 15
10 7 6 3 7 10 5 6 8 3 7 5 8 2 9 7 8 9 10 9 7 4 9 6 5 12 17 14 9 16 8 11 8 12 10 17 10 14 19 19 15 13 9 9 12
20 14 9 9 8 6 5 5 8 8 9 7 7 6 10 15 17 19 18 17 16 11 3 5 5 7 6 12 17 2 11 8 3 9 11 9 12 19 13 12 20 17 12 12 15
Wind_Direction
31 32 29 18 13 8 8 8 7 6 360 359 1 2 2 13 49 40 27 359 344 337 332 322 305 279 280 257 234 244 240 239 240 240 254 244 236 224 241 245 221 216 263 104 174
30 27 21 13 9 5 2 1 1 0 360 357 1 359 2 25 75 45 19 357 344 341 347 340 324 295 258 239 229 221 231 242 243 246 253 255 227 239 217 222 228 227 229 183 190
32 21 7 360 358 358 359 357 353 353 354 356 1 358 0 20 73 10 1 359 353 354 342 330 311 290 254 239 237 241 247 256 255 259 246 263 241 244 233 242 230 236 219 177 190
359 350 341 343 346 349 351 353 349 347 348 352 356 360 2 41 15 348 359 2 358 358 349 343 329 287 259 238 232 251 252 263 263 266 252 257 255 254 246 253 279 242 246 191 197
330 330 326 329 331 335 342 344 344 342 343 345 353 0 59 60 21 6 357 352 0 3 359 354 344 327 274 285 276 261 257 266 264 258 261 256 255 258 249 252 257 253 262 201 207
316 315 317 323 328 332 333 334 337 338 339 342 357 30 47 60 2 350 340 344 348 360 356 355 336 315 285 281 276 290 294 278 281 270 262 258 259 254 252 255 258 255 234 221 215
308 309 308 312 327 333 327 329 336 335 339 345 3 44 47 22 357 352 345 336 339 346 337 342 314 300 325 280 289 281 285 276 257 255 259 270 260 250 251 251 250 245 232 227 223
301 302 304 318 329 331 328 332 335 338 345 352 11 93 56 9 8 349 349 360 345 327 321 313 305 285 268 282 287 279 271 266 251 244 243 234 261 252 243 243 244 245 236 233 223
307 294 303 317 331 333 332 335 341 345 4 30 44 78 41 357 351 6 352 341 343 347 322 299 290 274 276 263 278 241 262 266 275 239 250 230 256 254 256 256 241 243 242 230 229
295 303 298 320 335 339 341 343 359 31 3 25 23 318 27 345 339 360 348 338 327 332 310 337 286 280 263 265 271 303 286 275 268 265 272 262 268 256 246 247 253 242 241 238 224
275 279 273 323 343 354 355 359 355 6 32 57 350 333 332 338 345 346 345 343 335 303 332 328 294 292 306 298 292 289 285 281 278 289 304 288 284 280 283 285 285 255 238 243 225
243 234 255 324 349 359 12 64 57 351 335 352 351 334 328 340 319 345 354 350 333 328 330 294 281 346 323 298 289 288 281 278 278 261 267 282 273 260 257 263 259 264 256 245 237
206 193 235 325 345 349 27 48 35 9 281 312 327 325 328 336 322 327 343 331 325 328 332 297 289 312 301 291 292 291 279 278 277 279 274 278 276 269 254 260 257 250 254 259 266
187 190 200 328 338 348 15 17 6 40 263 356 352 348 339 316 260 302 321 322 302 322 326 289 303 299 303 290 294 291 297 300 278 276 270 272 282 276 262 245 239 240 243 247 251
187 190 187 206 308 4 353 354 1 66 282 1 335 323 332 335 324 135 327 295 296 318 297 293 313 314 300 295 303 283 296 289 281 276 279 256 268 289 238 245 247 231 232 239 238
191 189 192 175 2 353 343 351 18 186 325 341 319 341 349 291 322 310 339 308 290 297 250 271 281 270 267 307 289 280 284 283 272 261 255 256 240 277 250 258 261 254 241 231 229
198 191 195 194 245 343 339 13 0 17 29 345 335 338 334 323 321 349 338 23 28 338 341 321 293 207 257 293 308 244 283 287 245 220 255 252 229 243 274 265 261 253 249 241 229
197 193 196 191 78 342 1 13 300 100 288 349 316 326 332 350 327 332 330 354 70 22 308 333 318 274 69 292 299 298 248 264 294 291 311 306 249 245 246 276 299 284 273 273 230
193 194 200 188 178 355 13 310 343 182 99 330 310 301 327 345 332 330 329 313 11 29 1 306 274 318 300 311 242 321 242 233 276 257 263 240 266 282 267 260 317 305 295 274 261
191 191 208 195 183 55 70 270 198 169 155 47 316 341 318 330 335 352 316 332 341 354 350 300 294 285 286 295 267 223 350 275 227 286 304 278 250 258 358 320 307 303 296 282 265
185 193 209 186 158 99 173 210 217 207 173 210 297 275 258 313 306 311 280 285 317 330 328 303 247 293 311 245 303 286 261 239 259 267 289 315 321 355 330 323 302 300 298 288 271
185 205 191 167 85 72 198 195 193 183 197 244 267 249 274 294 279 268 263 252 298 328 313 318 296 285 283 282 258 247 279 286 282 285 280 273 277 359 334 323 303 303 306 289 188
184 153 173 174 176 168 201 249 223 201 208 214 225 227 213 273 292 227 269 306 331 336 317 337 270 305 305 162 194 309 310 298 287 273 266 290 325 0 332 320 320 315 305 298 142
173 145 149 186 201 133 177 205 226 217 237 223 243 226 248 265 235 280 291 320 332 315 332 299 263 266 277 287 304 301 305 312 293 266 319 287 312 322 328 318 328 337 352 103 112
190 194 178 168 219 175 196 168 174 217 222 218 246 221 200 268 266 239 256 302 316 121 317 314 271 278 279 281 286 279 291 317 331 346 291 321 312 318 342 334 329 341 14 95 107
184 159 150 145 147 164 185 211 205 200 198 220 228 207 221 233 233 292 306 311 281 277 336 300 278 314 294 278 263 295 303 335 3 355 335 319 307 333 352 355 4 18 39 68 97
204 177 156 158 159 177 203 197 210 192 221 237 234 270 253 260 270 274 274 267 261 287 290 274 304 324 273 311 312 213 359 324 302 22 349 344 307 314 342 3 4 17 48 72 92
Height
1546 1544 1543 1542 1540 1538 1537 1535 1533 1531 1528 1525 1522 1520 1518 1516 1515 1515 1512 1514 1512 1510 1508 1508 1509 1510 1510 1509 1509 1508 1502 1496 1492 1492 1488 1487 1492 1492 1491 1491 1494 1496 1497 1497 1498
1547 1545 1544 1543 1541 1539 1537 1535 1534 1531 1528 1526 1523 1520 1518 1516 1516 1516 1517 1515 1513 1511 1510 1509 1509 1508 1507 1506 1504 1503 1496 1488 1485 1485 1485 1485 1487 1488 1491 1490 1490 1493 1495 1496 1496
1547 1546 1545 1543 1542 1540 1538 1535 1533 1531 1528 1526 1524 1520 1518 1516 1518 1519 1517 1515 1513 1511 1511 1510 1509 1509 1505 1502 1500 1497 1492 1486 1484 1484 1485 1484 1483 1487 1487 1486 1487 1487 1492 1493 1494
1547 1546 1545 1544 1543 1541 1538 1536 1533 1531 1528 1526 1523 1520 1518 1516 1519 1520 1517 1515 1513 1511 1511 1510 1509 1507 1503 1496 1496 1493 1490 1491 1488 1485 1486 1485 1485 1482 1485 1484 1485 1486 1487 1489 1490
1547 1546 1545 1544 1542 1541 1539 1536 1534 1532 1529 1526 1524 1521 1519 1521 1523 1520 1518 1516 1514 1512 1511 1510 1509 1507 1504 1497 1495 1488 1489 1489 1488 1487 1486 1485 1482 1479 1479 1482 1484 1484 1485 1485 1487
1547 1546 1545 1543 1542 1540 1539 1537 1534 1532 1530 1527 1525 1523 1522 1524 1523 1520 1517 1515 1514 1513 1512 1511 1511 1510 1508 1505 1502 1492 1490 1488 1488 1486 1485 1483 1478 1479 1477 1480 1480 1481 1482 1484 1484
1546 1545 1544 1543 1541 1540 1538 1536 1534 1531 1529 1527 1526 1525 1527 1529 1523 1520 1518 1515 1514 1513 1512 1512 1512 1512 1508 1503 1501 1497 1494 1489 1485 1486 1483 1484 1470 1468 1475 1474 1473 1475 1477 1478 1480
1544 1544 1543 1542 1541 1539 1538 1535 1533 1531 1530 1527 1526 1526 1529 1528 1524 1522 1518 1515 1514 1513 1512 1512 1511 1510 1508 1504 1499 1496 1490 1483 1478 1480 1479 1485 1447 1464 1468 1468 1466 1467 1470 1472 1473
1543 1543 1542 1541 1541 1539 1537 1535 1533 1531 1530 1528 1528 1528 1530 1528 1526 1522 1519 1516 1513 1513 1511 1510 1510 1508 1506 1503 1496 1488 1483 1476 1471 1469 1470 1467 1450 1462 1461 1459 1457 1459 1461 1464 1468
1542 1542 1542 1542 1541 1539 1536 1534 1533 1532 1530 1529 1529 1532 1531 1531 1526 1523 1521 1516 1514 1512 1511 1510 1508 1504 1499 1498 1496 1483 1478 1472 1472 1470 1465 1460 1449 1453 1453 1452 1451 1449 1453 1455 1460
1541 1542 1542 1542 1541 1539 1537 1535 1538 1537 1533 1535 1536 1533 1532 1530 1526 1525 1521 1517 1515 1513 1509 1508 1506 1498 1494 1495 1493 1492 1490 1485 1479 1474 1474 1468 1462 1458 1453 1450 1449 1445 1445 1448 1451
1540 1541 1542 1542 1541 1540 1538 1538 1539 1540 1538 1537 1535 1533 1532 1530 1528 1526 1522 1520 1516 1511 1511 1505 1499 1496 1500 1498 1494 1491 1487 1483 1476 1476 1474 1466 1450 1453 1450 1445 1445 1445 1439 1440 1443
1540 1541 1542 1542 1542 1542 1539 1540 1539 1538 1540 1538 1536 1535 1533 1531 1529 1526 1524 1521 1516 1512 1509 1509 1502 1500 1498 1494 1492 1487 1483 1479 1477 1475 1469 1467 1444 1442 1440 1441 1437 1437 1439 1437 1438
1540 1541 1542 1542 1545 1542 1540 1539 1540 1538 1537 1539 1536 1536 1534 1530 1529 1526 1524 1524 1517 1515 1512 1506 1501 1500 1496 1492 1490 1490 1481 1478 1475 1475 1472 1463 1440 1427 1423 1420 1423 1427 1431 1433 1434
1541 1541 1542 1541 1543 1543 1543 1540 1540 1540 1526 1540 1538 1536 1534 1534 1531 1526 1525 1522 1517 1513 1516 1502 1498 1497 1495 1491 1488 1483 1480 1480 1476 1472 1466 1463 1468 1423 1412 1414 1410 1412 1418 1423 1426
1541 1542 1543 1543 1543 1543 1541 1540 1541 1540 1525 1543 1540 1538 1535 1532 1530 1527 1525 1522 1518 1514 1509 1505 1497 1497 1493 1490 1488 1483 1480 1476 1469 1467 1464 1459 1459 1416 1413 1408 1402 1402 1404 1408 1413
1541 1542 1543 1542 1543 1543 1542 1542 1541 1529 1548 1546 1544 1541 1539 1532 1529 1527 1524 1520 1522 1518 1507 1499 1487 1489 1494 1489 1479 1482 1482 1473 1463 1465 1446 1432 1435 1409 1401 1398 1396 1395 1395 1397 1400
1541 1542 1543 1542 1542 1543 1543 1545 1534 1554 1548 1549 1546 1543 1539 1538 1529 1527 1523 1520 1523 1525 1519 1506 1496 1487 1488 1488 1485 1480 1486 1480 1460 1445 1433 1431 1426 1400 1388 1389 1392 1391 1392 1390 1389
1539 1541 1542 1541 1542 1543 1546 1543 1540 1545 1550 1550 1546 1544 1541 1541 1539 1531 1525 1526 1524 1526 1530 1516 1497 1489 1488 1483 1486 1484 1482 1475 1469 1454 1452 1421 1406 1390 1386 1391 1394 1395 1394 1390 1386
1539 1542 1542 1541 1542 1544 1547 1544 1548 1548 1548 1549 1548 1553 1546 1544 1542 1539 1531 1527 1525 1528 1528 1521 1508 1488 1483 1481 1479 1483 1480 1471 1467 1445 1431 1404 1401 1388 1394 1403 1397 1394 1392 1388 1385
1540 1541 1540 1540 1542 1544 1549 1547 1549 1548 1548 1550 1551 1550 1549 1549 1546 1545 1538 1529 1529 1528 1527 1523 1518 1492 1485 1480 1484 1481 1476 1478 1470 1456 1439 1418 1395 1411 1409 1409 1401 1394 1391 1386 1379
1539 1540 1538 1540 1545 1546 1546 1549 1547 1547 1548 1549 1550 1548 1548 1548 1544 1541 1533 1530 1530 1530 1527 1523 1521 1503 1484 1472 1474 1477 1477 1475 1463 1445 1440 1435 1405 1413 1412 1408 1402 1395 1389 1384 1377
1535 1536 1537 1540 1541 1543 1548 1548 1545 1546 1547 1547 1547 1547 1547 1547 1546 1538 1534 1531 1531 1530 1527 1525 1513 1501 1471 1472 1474 1473 1470 1470 1467 1460 1439 1428 1407 1412 1414 1405 1399 1394 1389 1385 1379
1533 1535 1537 1539 1540 1539 1545 1544 1544 1544 1544 1544 1543 1543 1546 1545 1544 1539 1532 1530 1530 1529 1530 1529 1517 1510 1500 1483 1480 1479 1467 1465 1462 1447 1437 1428 1422 1416 1415 1407 1399 1395 1392 1388 1383
1528 1528 1528 1534 1536 1536 1539 1540 1541 1543 1543 1543 1540 1539 1542 1543 1538 1536 1534 1531 1528 1526 1526 1524 1516 1505 1496 1487 1483 1479 1470 1465 1459 1457 1442 1432 1427 1422 1419 1410 1403 1398 1394 1391 1388
1521 1524 1527 1530 1531 1533 1538 1538 1537 1540 1539 1538 1537 1535 1537 1540 1532 1531 1531 1533 1529 1526 1527 1523 1512 1504 1492 1476 1476 1473 1469 1463 1460 1460 1449 1441 1425 1423 1419 1413 1404 1401 1397 1396 1393
1514 1516 1520 1530 1531 1532 1530 1530 1532 1535 1533 1533 1534 1534 1533 1531 1530 1529 1528 1528 1529 1530 1530 1525 1515 1508 1484 1469 1469 1468 1469 1466 1462 1465 1462 1450 1444 1430 1419 1416 1410 1404 1403 1401 1401